Location: GMARS
(34.2910°N, 116.3838°W)
Time: 15:05:07
(UTC-07:00)

Daily predictions for brighter satellites

Satellite Brightness Start Highest point End
(mag) Time Altitude Azimuth Time Altitude Azimuth Time Altitude Azimuth
ATLAS CENTAUR Rocket 4.5 20:08:33 10° W 20:15:21 66° S 21:35:37 10° ESE
Cosmos 2221 3.3 20:25:06 10° NNW 20:29:17 55° W 20:33:27 10° S
Cosmos 1378 3.7 20:26:27 10° SSW 20:30:09 63° W 20:33:52 10° N
Cosmos 332 Rocket 3.8 20:25:58 10° NNW 20:30:50 88° ENE 20:35:41 10° SSE
Cosmos 2228 Rocket 3.3 20:28:43 10° N 20:33:07 56° E 20:37:34 10° SSE
Cosmos 1500 Rocket 4.0 20:29:04 10° SSE 20:33:08 40° E 20:37:15 10° NNE
H-2A R/B 2.7 20:30:08 10° SSE 20:34:00 88° ENE 20:37:48 10° N
S3M 4.1 20:30:58 10° N 20:36:58 55° E 20:42:57 10° SSE
CZ-2D R/B 3.7 20:33:32 10° S 20:37:22 64° WSW 20:41:13 10° NNW
Cosmos 1655 Rocket 4.2 20:31:22 10° S 20:37:34 77° W 20:43:48 10° N
Cosmos 1437 Rocket 4.0 20:34:31 10° NNE 20:37:40 24° ENE 20:40:51 10° SE
Resurs 01 Rocket 4.3 20:37:55 10° SW 20:41:04 19° W 20:44:13 10° NW
Delta 2 Rocket 2.8 20:44:04 10° WSW 20:47:47 85° SSE 20:51:12 10° E
deb Chang Zheng 4 3.7 20:44:49 10° NNE 20:49:04 55° ESE 20:53:19 10° S
USA 186 2.7 20:48:25 10° SSW 20:50:35 33° W 20:52:49 10° NNW
OAO 2 Rocket 4.1 20:46:14 10° SW 20:50:58 33° SSE 20:55:43 10° E
Cosmos 1538 Rocket 4.1 20:45:52 10° NNW 20:51:14 76° ENE 20:56:35 10° SSE
Meteor 1-21 Rocket 4.2 20:51:00 10° S 20:56:33 87° E 21:02:05 10° N
Cosmos 1515 Rocket 3.5 21:00:32 10° N 21:04:58 78° E 21:09:15 10° S
Cosmos 371 Rocket 3.8 21:01:32 10° NNW 21:06:16 60° WSW 21:10:58 10° S
ALOS 3.8 21:02:07 10° SSW 21:06:22 35° W 21:10:39 10° NNW
Cosmos 2151 3.4 21:03:20 12° SSE 21:06:59 41° E 21:10:56 10° NNE
CZ-4 DEB 4.4 21:05:56 10° SSW 21:08:51 32° W 21:11:46 10° NNW
USA 229 DEB 4.3 21:03:01 10° SW 21:09:51 63° WNW 21:16:47 10° NNE
USA 229 4.3 21:03:07 10° SW 21:09:57 64° WNW 21:16:53 10° NNE
Cosmos 2292 4.4 21:07:36 10° N 21:10:36 74° W 21:13:55 11° S
Cosmos 773 Rocket 4.1 21:05:55 10° N 21:11:05 65° ENE 21:15:05 17° SSE
Tiangong 1 1.0 21:08:24 10° SW 21:11:26 55° SSE 21:14:28 10° ENE
Nimbus 7 Rocket 4.3 21:10:40 10° NNE 21:16:32 82° ESE 21:22:23 10° SSW
Cosmos 1726 4.2 21:15:30 10° NE 21:17:16 13° ENE 21:17:46 13° E
Cosmos 2219 3.2 21:16:07 10° S 21:21:45 61° ESE 21:27:24 10° NNE
Meteor 2-20 Rocket 4.4 21:17:44 10° S 21:23:53 85° E 21:30:04 10° N
Cosmos 1151 Rocket 2.9 21:21:36 10° N 21:25:54 75° E 21:28:42 21° SSE
SPOT 5 2.8 21:23:11 22° SSE 21:26:01 63° ENE 21:30:42 10° N
Cosmos 2058 3.3 21:25:16 25° SE 21:27:07 41° E 21:30:59 10° NNE
PSLV R/B 3.3 21:27:00 36° SE 21:27:56 53° ENE 21:30:55 10° N
Cosmos 2266 Rocket 4.1 21:22:12 10° S 21:28:31 83° W 21:34:46 10° N
Cosmos 1805 Rocket 3.9 21:27:06 24° SSE 21:29:21 44° E 21:33:35 10° NNE
NOSS 3-1 (A) 3.6 21:24:06 10° S 21:29:32 45° ESE 21:35:25 10° NE
Cosmos 2237 Rocket 4.5 21:32:15 10° NE 21:33:05 10° NE 21:33:55 10° ENE
Cosmos 1437 2.8 21:31:27 18° SSW 21:33:45 78° W 21:37:02 10° N
Cosmos 2322 3.7 21:28:36 10° NNW 21:34:19 69° ENE 21:37:34 26° SE
Cosmos 2315 Rocket 4.1 21:28:54 10° N 21:34:59 57° E 21:38:37 24° SSE
Cosmos 2322 Rocket 3.5 21:31:22 10° NW 21:36:23 35° WSW 21:41:23 10° SSW
Envisat 3.2 21:36:48 17° S 21:40:39 69° WSW 21:45:43 10° NNW
Cosmos 1908 3.9 21:39:22 10° NNW 21:43:09 51° W 21:45:38 20° SSW
Meteor 1-4 Rocket 4.4 21:41:47 10° NNE 21:44:12 18° ENE 21:44:12 18° ENE
ERS-1 Rocket 4.3 21:39:50 10° SSW 21:44:23 35° W 21:48:58 10° NNW
H-2A R/B 3.2 21:42:20 13° SSW 21:45:59 41° W 21:50:17 10° NNW
Cosmos 2360 Rocket 2.1 21:40:26 10° NNW 21:46:06 90° W 21:49:07 29° SSE
Cosmos 304 Rocket 3.7 21:41:33 10° NNW 21:46:23 89° ENE 21:48:35 33° SSE
SL-16 R/B 3.7 21:42:21 10° NW 21:47:13 30° WSW 21:52:04 10° SSW
MetOp-B 4.1 21:47:14 28° SSE 21:50:12 87° ENE 21:55:35 10° NNW
Cosmos 1244 Rocket 4.5 21:46:37 20° S 21:51:05 72° E 21:57:20 10° N
Cosmos 1707 Rocket 3.8 21:47:26 10° N 21:51:41 51° E 21:52:39 42° ESE
Cosmos 1666 Rocket 3.6 21:50:24 40° SSE 21:51:43 58° E 21:56:03 10° NNE
ATLAS 2AS CENTAUR R/B 3.7 21:50:45 27° ESE 21:51:57 28° ESE 21:58:21 10° NE
Cosmos 2112 Rocket 3.9 21:51:11 10° NNW 21:56:27 88° ENE 21:58:39 36° SSE
Cosmos 2298 Rocket 3.9 21:54:39 20° S 21:58:26 79° ESE 22:03:45 10° NNE
Cosmos 1937 Rocket 3.7 22:00:08 40° SE 22:01:19 48° ESE 22:06:19 10° NNE
Meteor 1-11 4.2 21:58:45 23° S 22:02:32 87° E 22:08:18 10° N
Meteor 2-11 Rocket 4.4 21:58:55 10° N 22:05:03 70° E 22:07:31 37° SSE
DELTA 2 R/B (1) 3.5 22:00:45 10° WNW 22:06:19 89° NNE 22:08:22 41° ESE
Cosmos 1300 2.5 22:02:52 10° N 22:06:42 80° E 22:07:01 72° SE
Cosmos 1745 Rocket 4.2 22:06:59 38° SE 22:08:53 50° E 22:14:51 10° NNE
Cosmos 2227 Rocket 2.7 22:08:49 36° ESE 22:08:54 36° ESE 22:14:02 10° NE
YAOGAN 6 3.0 22:09:51 49° SW 22:10:26 56° W 22:14:00 10° NNW
Cosmos 990 Rocket 4.3 22:13:45 43° ESE 22:13:45 43° ESE 22:18:35 10° NNE
NOSS 3-1 (C) 3.9 22:10:57 10° SW 22:16:38 58° NW 22:22:54 10° NNE
Terra 2.6 22:17:55 36° E 22:18:16 36° ENE 22:22:36 10° N
H-2A R/B 2.5 22:19:46 43° ESE 22:20:42 47° ENE 22:25:53 10° N
Cosmos 2333 Rocket 3.2 22:18:57 10° N 22:24:03 32° ENE 22:25:14 30° E
SL-23 DEB 3.7 22:19:50 10° NW 22:23:46 69° N 22:23:46 69° N
SL-16 R/B 4.4 22:23:34 10° NNE 22:25:58 13° NE 22:27:44 11° ENE
Cosmos 1455 3.9 22:26:04 10° NNE 22:28:13 24° NE 22:28:13 24° NE
Delta 2 Rocket 4.0 22:26:51 10° W 22:29:16 40° WNW 22:29:16 40° WNW
NOSS 0 Rocket 4.4 22:26:07 10° N 22:31:59 45° ENE 22:33:18 40° E
SPOT 1/Viking Rocket 4.1 22:31:25 37° SSW 22:33:01 50° W 22:38:00 10° NNW
Cosmos 1386 Rocket 4.4 22:34:40 54° SE 22:35:33 60° E 22:41:27 10° NNE
OAO 2 Rocket 3.2 22:30:14 10° WSW 22:35:33 80° SSE 22:36:15 66° E
COSMOS 2428 2.7 22:30:11 10° NNW 22:35:51 72° WSW 22:37:03 55° S
Cosmos 2297 Rocket 2.7 22:36:45 41° E 22:36:45 41° E 22:41:24 10° NE
CZ-4C R/B 3.9 22:38:19 47° NNW 22:38:19 47° NNW 22:40:54 10° NNW
Cosmos 2242 Rocket 3.6 22:34:36 10° N 22:39:05 77° W 22:39:10 77° WSW
ARGOS 3.7 22:41:19 40° SW 22:42:46 51° W 22:48:00 10° NNW
Cosmos 1898 Rocket 4.5 22:39:32 19° SW 22:42:55 44° WNW 22:47:54 10° N
DELTA 2 DEB (DPAF) 4.3 22:47:23 63° W 22:47:23 63° W 22:51:50 10° NNW
Cosmos 2219 Rocket 2.1 22:42:11 10° NNW 22:47:46 68° ENE 22:48:13 65° E
CARTOSAT-1 3.7 22:48:24 69° N 22:48:24 69° N 22:52:13 10° N
Tiangong 1 3.6 22:45:29 10° WNW 22:47:01 21° NW 22:47:01 21° NW
Cosmos 1862 Rocket 4.2 22:46:00 10° N 22:49:24 47° NE 22:49:24 47° NE
SL-08 RB Rocket 4.5 22:51:00 41° WSW 22:51:15 41° W 22:55:30 10° NNW
Cosmos 1726 3.8 22:49:24 10° NNW 22:52:27 29° W 22:52:27 29° W
SeaSat 1 4.3 22:52:14 18° ENE 22:52:54 18° NE 22:56:11 10° NNE
FALCON 9 R/B 3.6 22:35:11 10° W 22:59:38 89° N 23:03:14 33° E
Lacrosse 4 Rocket 3.8 22:58:30 10° NNE 23:00:59 15° NE 23:00:59 15° NE
Cosmos 1271 Rocket 4.2 22:59:19 10° NNW 23:02:06 34° WNW 23:02:06 34° WNW
Cosmos 1980 3.7 22:59:31 10° NNW 23:05:10 68° ENE 23:05:12 68° ENE
Cosmos 2082 4.2 23:16:22 45° WSW 23:17:42 56° WNW 23:23:20 10° NNE
Cosmos 2237 Rocket 2.1 23:12:18 10° NNW 23:17:50 79° NE 23:17:50 79° NE
Cosmos 1626 4.4 23:30:01 23° NW 23:30:01 23° NW 23:32:07 10° NNW
COSMOS 2455 3.4 23:26:47 10° NNW 23:32:35 47° ENE 23:32:41 47° ENE
ATLAS 2AS CENTAUR R/B 3.5 23:38:04 26° WSW 23:42:26 56° NW 23:50:17 10° NNE
Cosmos 2227 Rocket 3.9 23:50:34 20° W 23:52:58 26° WNW 23:57:41 10° N
Terra 3.9 23:56:48 18° W 23:56:48 18° W 23:59:21 10° NW
